Regional Weather Roundup
Issued by NWS

Home | Current Version | Previous Version | Text Only | Print | Product List | Glossary Off
Versions: 1 2 3 4 5 6 7 8 9 10 11 12 13 14 15 16 17 18 19 20 21 22 23 24 25 26 27 28 29 30 31 32 33 34 35 36 37 38 39 40 41 42 43 44 45 46 47 48 49 50

000
ASUS43 KLSX 152157
RWRMO

WEATHER SUMMARY FOR MISSOURI
NATIONAL WEATHER SERVICE SPRINGFIELD MO
500 PM CDT TUE AUG 15 2017

NOTE: "FAIR" INDICATES FEW OR NO CLOUDS BELOW 12,000 FEET WITH NO
       SIGNIFICANT WEATHER AND/OR OBSTRUCTIONS TO VISIBILITY.
       CURRENT SKY AND/OR WEATHER CONDITIONS ARE NOT AVAILABLE FOR
       CHILLICOTHE AND FARMINGTON.

MOZ001>031-035>038-043-044-053-054-152300-
...NORTHERN AND WESTERN MISSOURI...

CITY           SKY/WX    TMP DP  RH WIND       PRES   REMARKS
KANSAS CTY INT MOSUNNY   86  69  56 S9        29.84F HX  90
LEE`S SUMMIT   MOSUNNY   85  72  65 E6        29.85F HX  91
ST JOSEPH      MOSUNNY   88  71  57 SE10      29.84S HX  94
CHILLICOTHE      N/A     89  69  51 S9        29.86F HX  93
KIRKSVILLE     CLOUDY    81  70  69 N15       29.89S

$$
MOZ066>068-077>081-088>096-101>105-152300-
...SOUTHWEST MISSOURI...

CITY           SKY/WX    TMP DP  RH WIND       PRES   REMARKS
SPRINGFIELD    PTSUNNY   84  71  65 E8        29.86F
JOPLIN         CLOUDY    89  74  60 E5        29.82F HX  98
BRANSON        MOSUNNY   86  72  62 SE5       29.86F HX  92

$$
MOZ032>034-039>042-045>050-055>058-069>072-152300-
...CENTRAL MISSOURI...

CITY           SKY/WX    TMP DP  RH WIND       PRES   REMARKS
COLUMBIA       NOT AVBL
JEFFERSON CITY PTSUNNY   88  73  61 E5        29.86S HX  95
ROLLA          PTSUNNY   86  69  56 CALM      29.90S HX  90
SEDALIA        MOSUNNY   85  72  65 SE5       29.88F HX  91
WARRENSBURG    MOSUNNY   86  70  58 E6        29.85F HX  90

$$
MOZ051-052-059>065-152300-
...EAST CENTRAL MISSOURI...

CITY           SKY/WX    TMP DP  RH WIND       PRES   REMARKS
ST LOUIS INTL  MOSUNNY   88  68  51 E10       29.88F HX  91

$$
MOZ072>076-082>087-097>100-106>115-152300-
...SOUTH CENTRAL AND SOUTHEAST MISSOURI...

CITY           SKY/WX    TMP DP  RH WIND       PRES   REMARKS
CAPE GIRARDEAU NOT AVBL
POPLAR BLUFF   CLOUDY    82  73  74 VRB3      29.88F
WEST PLAINS    CLOUDY    82  71  69 S5        29.90F

$$



USA.gov is the U.S. government's official web portal to all federal, state and local government web resources and services.